SYN001 KCLE-KCMH

Flight info

Callsign SYN001
Flight time 0h 27m
Altitude 16000
Route LBRON WAAHU BUGZZ CBUSS2
Aircraft BCS3/M-SBDE2E3GIRWXY/LB1

Departure

Time 2026-05-09 01:01
Airport Cleveland Hopkins International Airport (KCLE)

Arrival

Time 2026-05-09 01:28
Airport John Glenn Columbus International Airport (KCMH)
Time Latitude Longitude Altitude Speed Heading
2026-05-09 00:46 41.41096 -81.84102 796 ft 3 kts
2026-05-09 00:46 41.41090 -81.84103 796 ft 0 kts
2026-05-09 00:53 41.41086 -81.84104 796 ft 2 kts
2026-05-09 00:53 41.41070 -81.84108 796 ft 2 kts
2026-05-09 00:54 41.41054 -81.84107 796 ft 2 kts 340°
2026-05-09 00:54 41.41040 -81.84097 796 ft 2 kts 313°
2026-05-09 00:56 41.41045 -81.84107 796 ft 5 kts 299°
2026-05-09 00:56 41.41060 -81.84216 796 ft 14 kts 279°
2026-05-09 00:56 41.41064 -81.84329 796 ft 11 kts 278°
2026-05-09 00:57 41.41112 -81.84379 797 ft 9 kts 348°
2026-05-09 00:57 41.41215 -81.84382 794 ft 21 kts 360°
2026-05-09 00:57 41.41298 -81.84347 794 ft 7 kts 40°
2026-05-09 00:57 41.41333 -81.84298 794 ft 8 kts 47°
2026-05-09 00:58 41.41373 -81.84239 793 ft 9 kts 49°
2026-05-09 00:58 41.41413 -81.84176 794 ft 8 kts 50°
2026-05-09 00:58 41.41446 -81.84148 795 ft 4 kts
2026-05-09 00:58 41.41454 -81.84149 795 ft 0 kts 354°
2026-05-09 00:59 41.41510 -81.84183 795 ft 12 kts 322°
2026-05-09 00:59 41.41523 -81.84213 795 ft 1 kts 269°
2026-05-09 01:00 41.41503 -81.84266 794 ft 6 kts 227°
2026-05-09 01:00 41.41484 -81.84293 793 ft 0 kts 227°
2026-05-09 01:00 41.41476 -81.84305 793 ft 5 kts 228°
2026-05-09 01:00 41.41317 -81.84550 793 ft 72 kts 229°
2026-05-09 01:01 41.40831 -81.85308 789 ft 141 kts 228°
2026-05-09 01:01 41.40170 -81.86328 1503 ft 147 kts 227°
2026-05-09 01:01 41.39336 -81.87039 2456 ft 145 kts 202°
2026-05-09 01:01 41.38357 -81.87373 3376 ft 148 kts 201°
2026-05-09 01:02 41.37281 -81.87674 4020 ft 167 kts 200°
2026-05-09 01:02 41.36087 -81.88002 4741 ft 182 kts 200°
2026-05-09 01:02 41.34786 -81.88371 5449 ft 199 kts 201°
2026-05-09 01:02 41.33433 -81.88994 5941 ft 220 kts 208°
2026-05-09 01:03 41.31953 -81.89820 6008 ft 245 kts 208°
2026-05-09 01:03 41.30313 -81.90735 6215 ft 263 kts 208°
2026-05-09 01:03 41.28651 -81.91646 7499 ft 256 kts 208°
2026-05-09 01:03 41.26977 -81.92564 8582 ft 263 kts 208°
2026-05-09 01:04 41.25267 -81.93541 9525 ft 269 kts 210°
2026-05-09 01:04 41.23592 -81.94691 10392 ft 275 kts 210°
2026-05-09 01:04 41.21742 -81.95667 10925 ft 294 kts 205°
2026-05-09 01:04 41.19771 -81.96644 11408 ft 309 kts 206°
2026-05-09 01:05 41.17764 -81.97681 12214 ft 311 kts 207°
2026-05-09 01:05 41.15734 -81.98763 13010 ft 315 kts 207°
2026-05-09 01:05 41.11646 -82.00959 14497 ft 322 kts 208°
2026-05-09 01:06 41.09558 -82.02085 15204 ft 326 kts 208°
2026-05-09 01:06 41.07442 -82.03228 15836 ft 333 kts 208°
2026-05-09 01:06 41.05260 -82.04412 16026 ft 342 kts 208°
2026-05-09 01:06 41.03076 -82.05590 16035 ft 334 kts 209°
2026-05-09 01:07 41.00934 -82.06744 16030 ft 330 kts 209°
2026-05-09 01:07 40.98802 -82.07897 16024 ft 332 kts 209°
2026-05-09 01:07 40.96692 -82.09041 16021 ft 330 kts 210°
2026-05-09 01:07 40.94753 -82.10567 16025 ft 323 kts 221°
2026-05-09 01:08 40.92957 -82.12328 16026 ft 321 kts 223°
2026-05-09 01:08 40.91176 -82.14121 16023 ft 320 kts 224°
2026-05-09 01:08 40.89405 -82.15909 16025 ft 321 kts 224°
2026-05-09 01:08 40.87625 -82.17703 16026 ft 320 kts 224°
2026-05-09 01:09 40.85847 -82.19494 16025 ft 321 kts 224°
2026-05-09 01:09 40.84074 -82.21279 16016 ft 321 kts 223°
2026-05-09 01:09 40.82297 -82.23066 16015 ft 321 kts 223°
2026-05-09 01:09 40.80525 -82.24847 16013 ft 320 kts 223°
2026-05-09 01:10 40.78745 -82.26634 16014 ft 321 kts 223°
2026-05-09 01:10 40.76993 -82.28393 16011 ft 321 kts 223°
2026-05-09 01:10 40.75216 -82.30175 16013 ft 320 kts 223°
2026-05-09 01:10 40.73444 -82.31950 16016 ft 320 kts 223°
2026-05-09 01:11 40.71666 -82.33729 16014 ft 321 kts 223°
2026-05-09 01:11 40.69881 -82.35515 16013 ft 320 kts 223°
2026-05-09 01:11 40.68102 -82.37292 16016 ft 320 kts 223°
2026-05-09 01:11 40.66326 -82.39067 16016 ft 321 kts 223°
2026-05-09 01:12 40.64543 -82.40846 16012 ft 321 kts 223°
2026-05-09 01:12 40.62585 -82.42316 16023 ft 329 kts 210°
2026-05-09 01:12 40.60481 -82.43434 16021 ft 331 kts 207°
2026-05-09 01:12 40.58305 -82.44523 15637 ft 336 kts 207°
2026-05-09 01:13 40.56116 -82.45549 15127 ft 332 kts 203°
2026-05-09 01:13 40.53904 -82.46375 14677 ft 329 kts 201°
2026-05-09 01:13 40.51692 -82.47169 14246 ft 328 kts 201°
2026-05-09 01:13 40.49521 -82.47947 13820 ft 326 kts 201°
2026-05-09 01:14 40.47337 -82.48730 13352 ft 323 kts 201°
2026-05-09 01:14 40.45178 -82.49504 12914 ft 320 kts 201°
2026-05-09 01:14 40.43038 -82.50272 12500 ft 316 kts 201°
2026-05-09 01:14 40.40932 -82.51027 12092 ft 312 kts 201°
2026-05-09 01:15 40.38846 -82.51776 11683 ft 307 kts 201°
2026-05-09 01:15 40.36831 -82.52496 11294 ft 297 kts 201°
2026-05-09 01:15 40.34881 -82.53192 11109 ft 281 kts 201°
2026-05-09 01:15 40.32996 -82.53869 10606 ft 280 kts 202°
2026-05-09 01:16 40.31389 -82.55092 10191 ft 261 kts 232°
2026-05-09 01:16 40.30682 -82.57164 9909 ft 249 kts 264°
2026-05-09 01:16 40.30935 -82.59416 9736 ft 252 kts 280°
2026-05-09 01:17 40.31814 -82.63875 9677 ft 254 kts 281°
2026-05-09 01:17 40.32262 -82.66123 9678 ft 254 kts 281°
2026-05-09 01:17 40.32701 -82.68332 9663 ft 251 kts 281°
2026-05-09 01:17 40.33128 -82.70475 9631 ft 234 kts 281°
2026-05-09 01:18 40.33527 -82.72465 9599 ft 218 kts 281°
2026-05-09 01:18 40.33909 -82.74326 9568 ft 205 kts 281°
2026-05-09 01:18 40.34128 -82.76087 9487 ft 189 kts 259°
2026-05-09 01:18 40.33450 -82.77455 9439 ft 184 kts 217°
2026-05-09 01:19 40.32178 -82.77712 9307 ft 191 kts 185°
2026-05-09 01:19 40.30624 -82.77279 6777 ft 290 kts 167°
2026-05-09 01:19 40.28730 -82.76530 6109 ft 285 kts 177°
2026-05-09 01:19 40.26834 -82.76172 5886 ft 271 kts 178°
2026-05-09 01:20 40.25017 -82.75834 5685 ft 258 kts 178°
2026-05-09 01:20 40.23241 -82.75504 5236 ft 257 kts 178°
2026-05-09 01:20 40.21487 -82.75185 5024 ft 251 kts 179°
2026-05-09 01:20 40.19787 -82.74463 5002 ft 264 kts 161°
2026-05-09 01:21 40.18112 -82.73436 5000 ft 266 kts 161°
2026-05-09 01:21 40.16428 -82.72410 4998 ft 266 kts 161°
2026-05-09 01:21 40.14751 -82.71389 4995 ft 264 kts 161°
2026-05-09 01:21 40.13123 -82.70394 4728 ft 262 kts 161°
2026-05-09 01:22 40.11476 -82.69395 4300 ft 260 kts 161°
2026-05-09 01:22 40.09850 -82.68417 4028 ft 252 kts 160°
2026-05-09 01:22 40.08302 -82.67501 3990 ft 235 kts 161°
2026-05-09 01:22 40.06858 -82.66639 3990 ft 222 kts 161°
2026-05-09 01:23 40.05454 -82.65796 4003 ft 223 kts 161°
2026-05-09 01:23 40.04082 -82.64976 4013 ft 207 kts 161°
2026-05-09 01:23 40.02823 -82.64210 3911 ft 193 kts 162°
2026-05-09 01:23 40.01593 -82.64028 3827 ft 168 kts 199°
2026-05-09 01:24 40.00658 -82.64800 3586 ft 161 kts 234°
2026-05-09 01:24 40.00197 -82.66116 3357 ft 160 kts 249°
2026-05-09 01:24 39.99815 -82.67492 3134 ft 161 kts 250°
2026-05-09 01:24 39.99491 -82.68874 2998 ft 161 kts 253°
2026-05-09 01:25 39.99243 -82.70299 2878 ft 163 kts 262°
2026-05-09 01:25 39.99228 -82.71783 2754 ft 164 kts 271°
2026-05-09 01:25 39.99321 -82.73253 2630 ft 160 kts 273°
2026-05-09 01:25 39.99415 -82.74689 2487 ft 158 kts 273°
2026-05-09 01:26 39.99496 -82.76130 2349 ft 160 kts 272°
2026-05-09 01:26 39.99576 -82.77570 2194 ft 160 kts 273°
2026-05-09 01:26 39.99657 -82.79016 2025 ft 159 kts 273°
2026-05-09 01:26 39.99739 -82.80441 1864 ft 152 kts 273°
2026-05-09 01:27 39.99813 -82.81749 1685 ft 142 kts 273°
2026-05-09 01:27 39.99883 -82.83024 1529 ft 141 kts 274°
2026-05-09 01:27 39.99956 -82.84304 1362 ft 141 kts 274°
2026-05-09 01:27 40.00028 -82.85582 1183 ft 140 kts 274°
2026-05-09 01:28 40.00095 -82.86847 1014 ft 139 kts 274°
2026-05-09 01:28 40.00168 -82.88106 848 ft 139 kts 274°
2026-05-09 01:28 40.00228 -82.89241 821 ft 107 kts 272°
2026-05-09 01:28 40.00271 -82.89899 826 ft 45 kts 271°
2026-05-09 01:29 40.00294 -82.90282 830 ft 38 kts 274°
2026-05-09 01:29 40.00222 -82.90404 828 ft 0 kts 202°
2026-05-09 01:29 40.00221 -82.90405 829 ft 0 kts 202°
2026-05-09 01:29 40.00220 -82.90405 829 ft 0 kts 190°